sat.trackr.live / text

‹ back to catalog

STARLINK-5175

NORAD 54079 · 2022-136AE

PAYLOAD ACTIVE UNKNOWN

§ Identity

Operator
Country
US
Launch date
2022-10-20
Launch site
AFETR
Launch vehicle
Mass (kg)
RCS (m²)

Purposes: comms

External: N2YO · Heavens-Above · Gunter

§ Orbital elements

Epoch: 2026-09-20T07:48:15.291936Z

Period
94.48 min
Inclination
53.1629°
Eccentricity
0.0001382
Mean motion
15.24205139 rev/d
Perigee alt
492.2 km
Apogee alt
494.1 km
Semi-major
6,871.3 km
B*
1.7179e-3
RAAN
178.5800°
Arg perigee
108.1969°
Mean anomaly
251.9179°
Rev number
21,638

§ Raw data

STARLINK-51751 54079U 22136AE  26263.32517699  .00042314  00000+0  17179-2 0  99902 54079  53.1629 178.5800 0001382 108.1969 251.9179 15.24205139216386

JSON: /api/v1/satellites/54079 · /tle

For live sub-satellite position, see the globe view (requires WebGL).

§ Visibility from observer

Set your observer location to see the next 7 days of passes ≥ 10°. The values pass through the URL so the page stays shareable.

No JS? Fill the form by hand. The geolocation button needs JavaScript.